Miscellaneous Local Product
Issued by NWS North Platte, NE

Home | Current Version | Previous Version | Graphics & Text | Print | Product List | Glossary On
Versions: 1 2 3 4 5 6 7 8 9 10 11 12 13 14 15 16 17 18 19 20 21 22 23 24 25 26 27 28 29 30 31 32 33 34 35 36 37 38 39 40 41 42 43 44 45 46 47 48 49 50
000
AXUS43 KLBF 060410
MISLBF


WESTERN AND NORTH CENTRAL NEBRASKA HOURLY WEATHER ROUNDUP
NATIONAL WEATHER SERVICE NORTH PLATTE NE
1000 PM CST THU MAR 05 2015

***STATIONS NOT REPORTING VARIABLES SUCH AS SKY/WEATHER OR
PRESSURE ARE PROVIDED BY THE NEBRASKA DEPARTMENT OF
ROADS...RAWS...AND APRS NETWORKS...AND ARE NOT UNDER
NATIONAL WEATHER SERVICE QUALITY CONTROL***

...OBSERVATIONS IN AND NEAR THE EASTERN PANHANDLE OF NEBRASKA...

CITY           SKY/WX    TMP DP  RH WIND       PRES   REMARKS
PINE RIDGE     CLEAR     24  18  77 SW6       30.18S WCI  17
CHADRON        CLEAR     31  20  63 W5        30.19R WCI  26
ALLIANCE       CLEAR     20  14  77 W6        30.20R WCI  12
SIDNEY         CLEAR     28  18  66 NW9       30.24R WCI  19
WHITECLAY        N/A     29  18  64 CALM        N/A
CRESCENT LAKE    N/A     27   9  46 SW7         N/A  WCI  20
LISCO            N/A     32  14  47 W10         N/A  WCI  24
BIG SPRINGS      N/A     25  18  74 SW6         N/A  WCI  18
LEWELLEN         N/A     24   9  51 CALM        N/A
$$

...OBSERVATIONS IN NORTH CENTRAL NEBRASKA...

CITY           SKY/WX    TMP DP  RH WIND       PRES   REMARKS
VALENTINE      CLEAR     31  20  63 W10       30.16S WCI  22
THEDFORD       CLEAR     29  14  51 W6        30.19S WCI  23
AINSWORTH      CLEAR     26  13  59 W10       30.16S WCI  15
O`NEILL        PTCLDY    32  12  44 S9        30.17F WCI  24
ORD            CLEAR     22   7  52 E3        30.20S
BROKEN BOW     CLEAR     29  10  45 SW5       30.19S WCI  24
BROWNLEE         N/A     32  10  40 W13         N/A  WCI  22
SPRINGVIEW       N/A     22  10  60 CALM        N/A
HALSEY           N/A     33   8  35 W5          N/A  WCI  28
BREWSTER         N/A     30  14  51 CALM        N/A
ROSE             N/A     34  19  53 CALM        N/A
NEWPORT          N/A     30  18  59 S9          N/A  WCI  22
SARGENT          N/A     24  12  59 CALM        N/A
COMSTOCK         N/A     33  11  40 W7          N/A  WCI  26
CHAMBERS         N/A     29   6  37 S6          N/A  WCI  23
EWING            N/A     32  13  45 S3          N/A
$$

...OBSERVATIONS IN SOUTHWEST NEBRASKA AND FAR NORTHEAST COLORADO...

CITY           SKY/WX    TMP DP  RH WIND       PRES   REMARKS
WRAY           FAIR      28  19  66 SW7       30.27S WCI  21
HOLYOKE        FAIR      28  18  64 W7        30.25S WCI  21
IMPERIAL         N/A     33  14  45 W12       30.25R WCI  24
OGALLALA       CLEAR     26  15  63 W6        30.23S WCI  19
NORTH PLATTE   CLEAR     23  11  60 W5        30.23R WCI  17
MCCOOK         CLEAR     32  16  51 SW10      30.24S WCI  24
LEXINGTON      CLEAR     27   9  47 CALM      30.21S
PAXTON           N/A     29  16  57 CALM        N/A
BRADY            N/A     26  10  51 CALM        N/A
GOTHENBURG       N/A     32  13  45 W3          N/A
CALLAWAY         N/A     32  12  43 NW8         N/A  WCI  25
$$

...NORTH PLATTE AREA...

CITY           SKY/WX    TMP DP  RH WIND       PRES   REMARKS
AIRPORT        CLEAR     23  11  60 W5        30.23R WCI  17
DOWNTOWN         N/A     32  14  46 CALM        N/A
$$

...SOME WEATHER OBSERVATIONS FROM AROUND THE REGION...

CITY           SKY/WX    TMP DP  RH WIND       PRES   REMARKS
DENVER         PTCLDY    26  18  71 SW7       30.26R WCI  18
LARAMIE        PTCLDY    24  10  55 W12       30.24R WCI  13
CHEYENNE       PTCLDY    32  14  47 SW13      30.23R WCI  22
SCOTTSBLUFF    CLEAR     28  19  69 NW5       30.23R WCI  23
RAPID CITY     CLEAR     29  15  56 SW3       30.14S
PIERRE         CLEAR     25  17  72 W5        30.10F WCI  19
WINNER         FAIR      34  19  54 W13       30.14R WCI  25
SIOUX FALLS    CLEAR     22   7  52 S15       30.20F WCI   9
OMAHA          CLEAR     25   7  46 S12       30.37F WCI  14
GRAND ISLAND   CLEAR     30   9  41 S13       30.24F WCI  20
KANSAS CITY    CLEAR     20   9  62 S9        30.46F WCI   9
WICHITA        PTCLDY    32  20  61 S13       30.44R WCI  22
HAYS           CLEAR     30   9  40 SW6       30.32S WCI  24
LIBERAL        CLEAR     30  19  64 SW10      30.35S WCI  21
GOODLAND       CLEAR     28  18  66 W10       30.29R WCI  19
$$



USA.gov is the U.S. government's official web portal to all federal, state and local government web resources and services.